[Date Prev][Date Next][Thread Prev][Thread Next] - [Date Index][Thread Index][Author Index]

2 Line ISS Keps 9-11



ISS
1 25544U 98067A   04255.35346257  .00016450  00000-0  14116-3 0  6664
2 25544  51.6348 245.9175 0005596 136.0023   6.7261 15.69525839331857
----
Via the sarex mailing list at AMSAT.ORG courtesy of AMSAT-NA.
To unsubscribe, send "unsubscribe sarex" to Majordomo@amsat.org



AMSAT Top AMSAT Home